Location: Unspecified
(0.0000°N, 0.0000°E)
Time: 04:28:03
(UTC+00:00)

OBJECT AA - Visible Passes

Search period start: 08 June 2023 00:00
Search period end: 18 June 2023 00:00
Orbit: 577 x 586 km, 97.4° (Epoch: 07 June)

Date Brightness Start Highest point End Pass type
(mag) Time Alt. Az. Time Alt. Az. Time Alt. Az.
08 Jun ? 19:24:28 10° N 19:28:16 37° WNW 19:32:04 10° SSW visible
09 Jun ? 19:30:08 10° NNW 19:33:44 31° W 19:37:22 10° SW visible
10 Jun ? 19:35:48 10° NNW 19:39:12 25° W 19:42:37 10° SW visible
11 Jun ? 19:41:32 10° NNW 19:44:39 21° WNW 19:47:47 10° SW visible
12 Jun ? 19:47:21 10° NW 19:50:06 18° WNW 19:52:52 10° WSW visible
13 Jun ? 19:53:16 10° NW 19:55:32 15° WNW 19:57:49 10° WSW visible
14 Jun ? 18:22:34 10° NE 18:25:51 24° ESE 18:29:09 10° SSE visible
14 Jun ? 19:59:24 10° NW 20:00:59 12° WNW 20:02:34 10° WSW visible
15 Jun ? 18:27:45 10° NE 18:31:17 28° ESE 18:34:49 10° SSE visible
16 Jun ? 18:32:59 10° NE 18:36:43 34° ESE 18:40:26 10° SSE visible
17 Jun ? 18:38:16 10° NNE 18:42:08 42° ESE 18:46:00 10° S visible
